Starlink 1454

operational
NORAD ID: 45671 Int'l Des: 2020-035 Owner: SPXS Country: US Constellation: starlink
LEOCIRCULARSTARLINK_TYPE

Starlink 1454について

説明を読み込み中...

リアルタイム位置

3D地球を読み込み中...

次回通過

高度履歴

Altitude vs Time

uPlot chart will show altitude changes over time

軌道要素

1 45671U 20035Q 25259.02827931 .00003569 00000-0 25826-3 0 9997
2 45671 53.0542 130.7055 0001504 96.7068 263.4092 15.06412361292391
Epoch: Sep 16, 2025 • Age: 10 hours

現在のステータス

高度 552.7 km
速度 7.59 km/s
衛星直下点 53.18°N, 61.4°E
打ち上げ日 Jun 4, 2020
運用期間 5.2 years
タイプ internet

技術仕様

分類 Payload
質量 260.00 kg
乾燥質量 248.00 kg
総質量 260.00 kg
長さ 0.20 m
直径 2.80 m
スパン 9.00 m
形状 Box + pan
製造者 SPXS
バスタイプ Starlink
フェーズステータス In Orbit
所有者/国 SPXS/US

大規模コンステレーション

Loading constellations...